Back to catalog

DMSP 5D-2 F13 DEB

AliveSSO
NORAD 40410·DEBRIS·🇺🇸 United States

Launched Mar 24, 1995 from Vandenberg Space Force Base

Loading…

Next Passes (next 24 hours)

TLE

FreshSource: Space-Track

Epoch: Sep 14, 2026, 00:36 UTC

1 40410U 95015X   26257.02506422  .00001314  00000-0  56718-3 0  9991
2 40410  98.7939 283.4379 0015964 331.1973  28.8323 14.26144324597338

Track DMSP 5D-2 F13 DEB in real time with AllMySat

Download on the App Store